#timestamp,LO_Frequency,Hit,StdDev 
1540933215.2,286047002.9,Y
1540933235.0,286047005.5,P
1540933236.0,286047005.5,N
1540933255.8,286047002.9,N
1540933275.6,286047005.5,Y
1540933295.5,286047001.2,P
1540933315.3,286047000.3,N
1540933335.1,286047002.1,N
1540933355.9,286047004.4,Y
1540933375.7,286047002.2,P
1540933395.6,286047002.8,P
1540933415.4,286047002.2,P
1540933435.2,286047002.0,Y
1540933455.1,286047000.8,P
1540933456.0,286047000.8,N
1540933475.8,286046998.5,N
1540933495.7,286046999.5,N
1540933515.5,286047000.7,N
1540933535.3,286046998.3,N
1540933555.2,286047002.3,N
1540933575.0,286047002.5,N
1540933575.9,286047002.5,N
1540933595.7,286046999.8,N
1540933615.6,286046998.2,N
1540933635.4,286047001.5,N
1540933655.3,286047002.0,N
1540933675.1,286047001.4,N
1540933676.0,286047001.4,N
1540933695.8,286047003.8,N
1540933715.7,286047005.1,Y
1540933735.5,286047003.1,P
1540933755.4,286047002.2,N
1540933775.2,286047003.9,P
1540933795.0,286047003.1,N
1540933795.9,286047003.1,Y
1540933815.8,286047002.8,P
1540933835.6,286047002.5,P
1540933855.4,286047002.8,P
1540933875.3,286047002.5,Y
1540933895.1,286047000.4,P
1540933915.9,286047001.6,N
1540933935.7,286047002.7,N
1540933955.5,286047000.4,N
1540933975.4,286046999.9,N
1540933995.2,286047002.8,N
1540934015.1,286047002.7,N
1540934016.0,286047002.7,N
1540934035.8,286047002.3,N
1540934055.6,286047000.9,N
1540934075.5,286046998.3,N
1540934095.3,286046999.5,N
1540934115.1,286047000.8,N
1540934135.9,286047000.9,N
1540934155.7,286047002.6,N
1540934175.6,286047004.1,Y
1540934195.4,286047002.3,P
1540934215.2,286047000.2,N
1540934235.1,286047001.7,N
1540934236.0,286047001.7,N
1540934255.8,286047001.6,N
1540934275.6,286047001.4,N
1540934295.5,286047002.0,Y
1540934315.3,286046998.1,P
1540934335.2,286047000.7,N
1540934355.9,286046999.9,N
1540934375.7,286047000.1,N
1540934395.6,286047002.5,N
1540934415.4,286047000.2,N
1540934435.3,286047001.5,N
1540934455.1,286047004.0,Y
1540934456.0,286047004.0,P
1540934475.8,286047004.3,N
1540934495.7,286047004.0,N
1540934515.5,286047001.7,N
1540934535.3,286047003.8,N
1540934555.2,286047002.0,N
1540934575.0,286047002.6,N
1540934575.9,286047002.6,N
1540934595.8,286047000.5,N
1540934615.6,286047002.8,N
1540934635.4,286047001.9,N
1540934655.3,286047004.3,Y
1540934675.1,286046999.9,P
1540934695.8,286046998.5,N
1540934715.7,286046996.9,N
1540934735.5,286046998.7,N
1540934755.4,286046999.2,N
1540934775.2,286046997.3,N
1540934795.0,286046996.8,N
1540934795.9,286046996.8,N
1540934815.8,286046999.2,N
1540934835.6,286046999.5,N
1540934855.5,286047000.3,N
1540934875.3,286046998.5,N
1540934895.1,286047000.3,N
1540934915.9,286046998.6,N
1540934935.7,286046999.9,N
1540934955.5,286047000.5,N
1540934975.4,286046999.9,N
1540934995.2,286047000.6,N
1540935015.1,286046998.5,N
1540935016.0,286046998.5,N
1540935035.8,286047000.8,N
1540935055.6,286046996.9,N
1540935075.5,286046998.6,N
1540935095.3,286047000.6,N
1540935115.1,286046998.7,N
1540935135.9,286047001.2,N
1540935155.7,286046998.9,N
1540935175.6,286046999.4,N
1540935195.4,286046996.5,N
1540935215.2,286046997.4,N
1540935235.1,286046995.1,Y
1540935236.0,286046995.1,P
1540935255.8,286046995.3,N
1540935275.7,286046995.2,N
1540935295.5,286046995.7,N
1540935315.3,286046998.0,N
1540935335.2,286046995.3,Y
1540935355.0,286047000.3,P
1540935355.9,286047000.3,N
1540935375.8,286047000.4,N
1540935395.6,286046996.9,N
1540935415.4,286046997.1,N
1540935435.3,286046998.2,N
1540935455.1,286047000.3,N
1540935475.8,286047000.2,N
1540935495.7,286046998.2,N
1540935515.5,286046996.8,N
1540935535.4,286046997.3,N
1540935555.2,286046998.0,N
1540935575.0,286046997.6,N
1540935575.9,286046997.6,N
1540935595.8,286046993.3,Y
1540935615.6,286046995.6,P
1540935635.4,286046993.7,P
1540935655.3,286046992.2,P
1540935675.1,286046992.8,Y
1540935695.9,286046998.4,P
1540935715.7,286046997.3,N
1540935735.5,286046998.0,N
1540935755.4,286046995.8,Y
1540935775.2,286046998.9,P
1540935795.1,286047000.6,N
1540935796.0,286047000.6,N
1540935815.8,286046996.7,N
1540935835.6,286046996.9,N
1540935855.5,286046996.6,N
1540935875.3,286046996.5,N
1540935895.1,286046996.6,N
1540935915.9,286046997.2,N
1540935935.7,286046995.4,N
1540935955.6,286046997.5,N
1540935975.4,286046997.5,N
1540935995.2,286046996.6,N
1540936015.1,286046999.0,N
1540936016.0,286046999.0,N
1540936035.8,286047001.8,N
1540936055.7,286047001.5,N
1540936075.5,286047001.9,N
1540936095.3,286047001.2,N
1540936115.2,286046996.6,N
1540936135.0,286047000.1,N
1540936135.9,286047000.1,N
1540936155.7,286047000.2,N
1540936175.6,286046998.4,N
1540936195.4,286047000.8,N
1540936215.3,286046998.7,N
1540936235.1,286046998.7,N
1540936236.0,286046998.7,N
1540936255.8,286046996.7,N
1540936275.7,286046996.7,N
1540936295.5,286046995.4,N
1540936315.4,286046995.3,N
1540936335.2,286046994.2,N
1540936355.0,286046994.6,N
1540936355.9,286046994.6,N
1540936375.8,286046992.0,Y
1540936395.6,286046999.6,P
1540936415.5,286046998.9,N
1540936435.3,286047001.1,N
1540936455.1,286047000.7,N
1540936475.9,286047002.2,N
1540936495.7,286046998.2,N
1540936515.5,286046998.1,N
1540936535.4,286046998.2,N
1540936555.2,286046999.1,N
1540936575.1,286046996.5,N
1540936576.0,286046996.5,N
1540936595.8,286046995.4,N
1540936615.6,286046996.3,N
1540936635.5,286046996.6,N
1540936655.3,286046998.1,N
1540936675.1,286047002.1,N
1540936695.9,286047003.5,N
1540936715.7,286047007.4,Y
1540936735.6,286047010.3,P
1540936755.4,286047010.6,N
1540936775.2,286047010.4,N
1540936795.1,286047008.7,N
1540936796.0,286047008.7,N
